When you browse on this site, cookies collect data to enhance your experience and personalize the content and advertising you see.
Visit our Privacy Policy to learn more. By continuing to use the site, you agree to this use of cookies and data.
  • En España
  • Lista de países
  • Para 7 días
  • Temperatura del agua
  • Mapa Satelital
  • El tiempo en el mapa
  • Informadores
  • user-avatar
    Iniciar sesión

    Tiempo cada hora Kalgoorlie

    Hoy, 17 Febrero, Domingo

    Tiempo Temperatura Precipitaciones Viento Presión Humedad
    00:00 +22°C° 0 mm 10 mps 730 mmHg 54%
    01:00 +21°C° 0 mm 9 mps 730 mmHg 58%
    02:00 +20°C° 0 mm 8 mps 730 mmHg 61%
    03:00 +18°C° 0 mm 8 mps 730 mmHg 64%
    04:00 +18°C° 0 mm 7 mps 730 mmHg 67%
    05:00 +17°C° 0 mm 7 mps 730 mmHg 70%
    06:00 +18°C° 0 mm 7 mps 730 mmHg 67%
    07:00 +20°C° 0 mm 7 mps 730 mmHg 64%
    08:00 +21°C° 0 mm 6 mps 731 mmHg 57%
    09:00 +23°C° 0 mm 6 mps 730 mmHg 50%
    10:00 +26°C° 0 mm 6 mps 730 mmHg 43%
    11:00 +28°C° 0 mm 5 mps 730 mmHg 36%
    12:00 +29°C° 0 mm 5 mps 729 mmHg 33%
    13:00 +32°C° 0 mm 4 mps 729 mmHg 30%
    14:00 +32°C° 0 mm 4 mps 728 mmHg 28%
    15:00 +33°C° 0 mm 4 mps 728 mmHg 27%
    16:00 +33°C° 0 mm 4 mps 728 mmHg 25%
    17:00 +33°C° 0 mm 4 mps 728 mmHg 24%
    18:00 +33°C° 0 mm 4 mps 728 mmHg 25%
    19:00 +32°C° 0 mm 5 mps 729 mmHg 25%
    20:00 +30°C° 0 mm 5 mps 729 mmHg 26%
    21:00 +28°C° 0 mm 7 mps 729 mmHg 32%
    22:00 +26°C° 0 mm 8 mps 729 mmHg 38%
    23:00 +23°C° 0 mm 9 mps 730 mmHg 44%

    Mañana, 18 Febrero, Lunes

    Tiempo Temperatura Precipitaciones Viento Presión Humedad
    00:00 +21°C° 0 mm 9 mps 729 mmHg 49%
    01:00 +20°C° 0 mm 8 mps 729 mmHg 55%
    02:00 +18°C° 0 mm 8 mps 729 mmHg 60%
    03:00 +17°C° 0 mm 7 mps 729 mmHg 62%
    04:00 +17°C° 0 mm 7 mps 729 mmHg 65%
    05:00 +16°C° 0 mm 6 mps 729 mmHg 67%
    06:00 +17°C° 0 mm 6 mps 730 mmHg 64%
    07:00 +19°C° 0 mm 6 mps 730 mmHg 60%
    08:00 +20°C° 0 mm 6 mps 730 mmHg 57%
    09:00 +22°C° 0 mm 6 mps 730 mmHg 49%
    10:00 +24°C° 0 mm 6 mps 730 mmHg 41%
    11:00 +27°C° 0 mm 6 mps 730 mmHg 33%
    12:00 +29°C° 0 mm 6 mps 730 mmHg 31%
    13:00 +30°C° 0 mm 5 mps 729 mmHg 28%
    14:00 +33°C° 0 mm 5 mps 728 mmHg 25%
    15:00 +33°C° 0 mm 5 mps 728 mmHg 25%
    16:00 +33°C° 0 mm 4 mps 728 mmHg 24%
    17:00 +34°C° 0 mm 4 mps 728 mmHg 24%
    18:00 +33°C° 0 mm 4 mps 728 mmHg 25%
    19:00 +32°C° 0 mm 4 mps 729 mmHg 26%
    20:00 +30°C° 0 mm 4 mps 729 mmHg 26%
    21:00 +30°C° 0 mm 6 mps 729 mmHg 27%
    22:00 +29°C° 0 mm 7 mps 729 mmHg 27%
    23:00 +28°C° 0 mm 8 mps 729 mmHg 28%

    Pasado mañana, 19 Febrero, Martes

    Tiempo Temperatura Precipitaciones Viento Presión Humedad
    00:00 +27°C° 0 mm 8 mps 729 mmHg 30%
    01:00 +26°C° 0 mm 8 mps 728 mmHg 32%
    02:00 +24°C° 0 mm 9 mps 728 mmHg 34%
    03:00 +24°C° 0 mm 8 mps 728 mmHg 39%
    04:00 +23°C° 0 mm 8 mps 728 mmHg 44%
    05:00 +22°C° 0 mm 7 mps 728 mmHg 49%
    06:00 +23°C° 0 mm 7 mps 728 mmHg 47%
    07:00 +23°C° 0 mm 7 mps 729 mmHg 44%
    08:00 +24°C° 0 mm 7 mps 729 mmHg 42%
    09:00 +28°C° 0 mm 7 mps 729 mmHg 37%
    10:00 +30°C° 0 mm 7 mps 729 mmHg 31%
    11:00 +33°C° 0 mm 7 mps 729 mmHg 26%
    12:00 +35°C° 0.1 mm 7 mps 729 mmHg 24%
    13:00 +36°C° 0.1 mm 6 mps 728 mmHg 22%
    14:00 +38°C° 0.1 mm 6 mps 727 mmHg 20%
    15:00 +39°C° 0 mm 6 mps 727 mmHg 20%
    16:00 +39°C° 0 mm 6 mps 727 mmHg 19%
    17:00 +39°C° 0 mm 6 mps 727 mmHg 19%
    18:00 +38°C° 0 mm 7 mps 727 mmHg 20%
    19:00 +37°C° 0 mm 9 mps 726 mmHg 22%
    20:00 +34°C° 0 mm 10 mps 726 mmHg 23%
    21:00 +34°C° 0 mm 10 mps 727 mmHg 23%
    22:00 +33°C° 0 mm 10 mps 727 mmHg 22%
    23:00 +32°C° 0 mm 9 mps 727 mmHg 22%

    20 Febrero, Miércoles

    Tiempo Temperatura Precipitaciones Viento Presión Humedad
    00:00 +31°C° 0.1 mm 10 mps 727 mmHg 22%
    01:00 +29°C° 0.1 mm 10 mps 727 mmHg 22%
    02:00 +28°C° 0.1 mm 10 mps 727 mmHg 22%
    03:00 +28°C° 0 mm 10 mps 727 mmHg 23%
    04:00 +27°C° 0 mm 9 mps 727 mmHg 23%
    05:00 +27°C° 0 mm 9 mps 727 mmHg 23%
    06:00 +28°C° 0 mm 10 mps 727 mmHg 23%
    07:00 +28°C° 0 mm 10 mps 727 mmHg 23%
    08:00 +29°C° 0 mm 11 mps 728 mmHg 24%
    09:00 +32°C° 0 mm 11 mps 727 mmHg 22%
    10:00 +36°C° 0 mm 11 mps 727 mmHg 20%
    11:00 +38°C° 0 mm 10 mps 727 mmHg 19%
    12:00 +40°C° 0 mm 10 mps 726 mmHg 16%
    13:00 +43°C° 0 mm 9 mps 726 mmHg 13%
    14:00 +44°C° 0 mm 8 mps 725 mmHg 10%
    15:00 +44°C° 0 mm 8 mps 724 mmHg 10%
    16:00 +44°C° 0 mm 8 mps 724 mmHg 10%
    17:00 +43°C° 0 mm 8 mps 723 mmHg 9%
    18:00 +41°C° 0 mm 7 mps 724 mmHg 11%
    19:00 +39°C° 0 mm 5 mps 724 mmHg 13%
    20:00 +36°C° 0 mm 4 mps 724 mmHg 15%
    21:00 +36°C° 0 mm 5 mps 725 mmHg 17%
    22:00 +35°C° 0 mm 5 mps 725 mmHg 19%
    23:00 +34°C° 0 mm 6 mps 725 mmHg 21%

    21 Febrero, Jueves

    Tiempo Temperatura Precipitaciones Viento Presión Humedad
    00:00 +33°C° 0 mm 6 mps 725 mmHg 26%
    01:00 +30°C° 0 mm 6 mps 725 mmHg 31%
    02:00 +29°C° 0 mm 6 mps 725 mmHg 36%
    03:00 +28°C° 0 mm 5 mps 725 mmHg 39%
    04:00 +27°C° 0 mm 4 mps 725 mmHg 42%
    05:00 +26°C° 0 mm 3 mps 726 mmHg 46%
    06:00 +27°C° 0 mm 3 mps 726 mmHg 44%
    07:00 +28°C° 0 mm 3 mps 727 mmHg 42%
    08:00 +28°C° 0 mm 3 mps 728 mmHg 40%
    09:00 +31°C° 0 mm 3 mps 728 mmHg 33%
    10:00 +34°C° 0 mm 4 mps 728 mmHg 26%
    11:00 +36°C° 0 mm 4 mps 728 mmHg 19%
    12:00 +37°C° 0 mm 4 mps 727 mmHg 17%
    13:00 +39°C° 0 mm 5 mps 727 mmHg 14%
    14:00 +40°C° 0 mm 6 mps 726 mmHg 12%
    15:00 +40°C° 0 mm 5 mps 726 mmHg 11%
    16:00 +40°C° 0 mm 5 mps 726 mmHg 11%
    17:00 +40°C° 0 mm 5 mps 726 mmHg 11%
    18:00 +39°C° 0 mm 5 mps 726 mmHg 13%
    19:00 +36°C° 0 mm 5 mps 727 mmHg 14%
    20:00 +35°C° 0 mm 5 mps 727 mmHg 16%
    21:00 +34°C° 0 mm 5 mps 727 mmHg 18%
    22:00 +33°C° 0 mm 5 mps 728 mmHg 20%
    23:00 +32°C° 0 mm 5 mps 728 mmHg 23%

    22 Febrero, Viernes

    Tiempo Temperatura Precipitaciones Viento Presión Humedad
    00:00 +29°C° 0 mm 6 mps 728 mmHg 37%
    01:00 +27°C° 0 mm 6 mps 727 mmHg 52%
    02:00 +24°C° 0 mm 7 mps 727 mmHg 66%
    03:00 +23°C° 0 mm 6 mps 727 mmHg 67%
    04:00 +22°C° 0 mm 6 mps 728 mmHg 69%
    05:00 +22°C° 0 mm 6 mps 728 mmHg 70%
    06:00 +23°C° 0 mm 6 mps 728 mmHg 66%
    07:00 +24°C° 0 mm 6 mps 729 mmHg 61%
    08:00 +26°C° 0 mm 5 mps 729 mmHg 57%
    09:00 +28°C° 0 mm 5 mps 729 mmHg 48%
    10:00 +32°C° 0 mm 4 mps 729 mmHg 39%
    11:00 +34°C° 0 mm 3 mps 729 mmHg 30%
    12:00 +36°C° 0 mm 2 mps 728 mmHg 26%
    13:00 +36°C° 0 mm 1 mps 728 mmHg 21%
    14:00 +35°C° 0 mm 0 mps 727 mmHg 16%
    15:00 +39°C° 0 mm 1 mps 727 mmHg 15%
    16:00 +39°C° 0 mm 1 mps 727 mmHg 14%
    17:00 +39°C° 0 mm 1 mps 727 mmHg 13%
    18:00 +37°C° 0 mm 1 mps 727 mmHg 14%
    19:00 +36°C° 0 mm 1 mps 728 mmHg 15%
    20:00 +35°C° 0 mm 1 mps 728 mmHg 16%
    21:00 +36°C° 0 mm 2 mps 728 mmHg 16%
    22:00 +35°C° 0 mm 3 mps 728 mmHg 17%
    23:00 +35°C° 0 mm 3 mps 728 mmHg 17%
    Mostrar más